Weather History for Algona, IA

Change the Weather History Date:

Tuesday, November 19, 2013

  Actual Average Record
Temperature  
Mean Temperature 39 °F -  
Max Temperature 50 °F 41 °F 62 °F (2003)
Min Temperature 28 °F 25 °F 12 °F (1997)
Degree Days  
Heating Degree Days 26    
Moisture  
Dew Point 32 °F    
Average Humidity 76    
Maximum Humidity 100    
Minimum Humidity 58    
Precipitation  
Precipitation 0.00 in - - ()
Sea Level Pressure  
Sea Level Pressure 30.04 in    
Wind  
Wind Speed 16 mph (SSE)    
Max Wind Speed 29 mph    
Max Gust Speed 39 mph    
Visibility 9 miles    
Events      
Averages and records for this station are not official NWS values.
T = Trace of Precipitation, MM = Missing Value Source: NWS Daily Summary

Daily Weather History Graph

Daily Weather History Graph

Search for Another Location

Airport:

Trip Planner

Search our weather history database for the weather conditions in past years. The results will help you decide how hot, cold, wet, or windy it might be!

Date:

Astronomy

Nov. 19, 2013 Rise Set
Actual Time 7:15 AM CST 4:49 PM CST
Civil Twilight 6:44 AM CST 5:20 PM CST
Nautical Twilight 6:09 AM CST 5:55 PM CST
Astronomical Twilight 5:35 AM CST 6:29 PM CST
Moon 6:41 PM CST (11/19) 8:55 AM CST (11/19)
Length of Visible Light 10h 36m
Length of Day
9h 34m
Waning Gibbous, 96% of the Moon is Illuminated
Nov 19
Waning Gibbous
Nov 25
Last Quarter
Dec 2
New
Dec 9
First Quarter
Dec 17
Full

Hourly Weather History & Observations

Time (CST) Temp. Windchill Dew Point Humidity Pressure Visibility Wind Dir Wind Speed Gust Speed Precip Events Conditions
12:15 AM 28.4 °F 21.2 °F 28.4 °F 100% 30.23 in 9.0 mi SE 6.9 mph - N/A   Clear
12:35 AM 30.2 °F 22.6 °F 28.4 °F 93% 30.22 in 8.0 mi ESE 8.1 mph - N/A   Clear
12:55 AM 30.2 °F 23.4 °F 28.4 °F 93% 30.21 in 8.0 mi SE 6.9 mph - N/A   Clear
1:15 AM 30.2 °F 22.6 °F 28.4 °F 93% 30.21 in 8.0 mi SE 8.1 mph - N/A   Clear
1:35 AM 30.2 °F 22.6 °F 28.4 °F 93% 30.20 in 8.0 mi SE 8.1 mph - N/A   Clear
1:55 AM 32.0 °F 23.6 °F 28.4 °F 87% 30.20 in 10.0 mi SE 10.4 mph - N/A   Clear
2:15 AM 32.0 °F 23.6 °F 28.4 °F 87% 30.20 in 10.0 mi SE 10.4 mph - N/A   Clear
2:35 AM 30.2 °F 21.9 °F 28.4 °F 93% 30.20 in 10.0 mi SSE 9.2 mph - N/A   Clear
2:55 AM 30.2 °F 21.9 °F 28.4 °F 93% 30.20 in 9.0 mi SE 9.2 mph - N/A   Clear
3:15 AM 28.4 °F 19.7 °F 28.4 °F 100% 30.19 in 8.0 mi SE 9.2 mph - N/A   Clear
3:35 AM 30.2 °F 21.9 °F 28.4 °F 93% 30.18 in 10.0 mi SE 9.2 mph - N/A   Clear
3:55 AM 28.4 °F 20.4 °F 28.4 °F 100% 30.18 in 8.0 mi SE 8.1 mph - N/A   Clear
4:15 AM 28.4 °F 19.1 °F 28.4 °F 100% 30.17 in 8.0 mi SE 10.4 mph - N/A   Clear
4:35 AM 30.2 °F 20.8 °F 28.4 °F 93% 30.17 in 8.0 mi SE 11.5 mph 19.6 mph N/A   Clear
4:55 AM 30.2 °F 19.8 °F 28.4 °F 93% 30.16 in 8.0 mi SE 13.8 mph - N/A   Clear
5:15 AM 30.2 °F 18.9 °F 28.4 °F 93% 30.16 in 8.0 mi SE 16.1 mph - N/A   Clear
5:35 AM 30.2 °F 19.3 °F 28.4 °F 93% 30.16 in 7.0 mi SE 15.0 mph 20.7 mph N/A   Clear
5:55 AM 30.2 °F 18.5 °F 28.4 °F 93% 30.15 in 8.0 mi SE 17.3 mph 24.2 mph N/A   Clear
6:15 AM 30.2 °F 18.5 °F 28.4 °F 93% 30.14 in 8.0 mi SE 17.3 mph 24.2 mph N/A   Clear
6:35 AM 30.2 °F 18.1 °F 28.4 °F 93% 30.14 in 9.0 mi SSE 18.4 mph 24.2 mph N/A   Clear
6:55 AM 30.2 °F 17.4 °F 28.4 °F 93% 30.14 in 9.0 mi SSE 20.7 mph 26.5 mph N/A   Clear
7:15 AM 30.2 °F 16.8 °F 28.4 °F 93% 30.13 in 7.0 mi SSE 23.0 mph 28.8 mph N/A   Clear
7:35 AM 30.2 °F 17.4 °F 28.4 °F 93% 30.13 in 7.0 mi SSE 20.7 mph 28.8 mph N/A   Clear
7:55 AM 32.0 °F 19.2 °F 28.4 °F 87% 30.12 in 8.0 mi SSE 23.0 mph 28.8 mph N/A   Clear
8:15 AM 33.8 °F 21.0 °F 28.4 °F 81% 30.11 in 9.0 mi SSE 25.3 mph - N/A   Clear
8:35 AM 33.8 °F 21.3 °F 30.2 °F 87% 30.11 in 9.0 mi SSE 24.2 mph - N/A   Clear
8:55 AM 35.6 °F 24.5 °F 30.2 °F 81% 30.12 in 9.0 mi SSE 20.7 mph 29.9 mph N/A   Clear
9:15 AM 35.6 °F 24.5 °F 32.0 °F 87% 30.12 in 9.0 mi SSE 20.7 mph 28.8 mph N/A   Clear
9:35 AM 37.4 °F 26.9 °F 32.0 °F 81% 30.11 in 9.0 mi SSE 20.7 mph 27.6 mph N/A   Clear
9:55 AM 37.4 °F 26.6 °F 32.0 °F 81% 30.11 in 9.0 mi SSE 21.9 mph 29.9 mph N/A   Clear
10:15 AM 39.2 °F 28.7 °F 32.0 °F 75% 30.10 in 9.0 mi SSE 23.0 mph - N/A   Clear
10:35 AM 41.0 °F 31.9 °F 33.8 °F 76% 30.10 in 9.0 mi SSE 19.6 mph 26.5 mph N/A   Clear
10:55 AM 41.0 °F 31.9 °F 33.8 °F 76% 30.09 in 9.0 mi SSE 19.6 mph 26.5 mph N/A   Clear
11:15 AM 42.8 °F 33.5 °F 33.8 °F 70% 30.08 in 10.0 mi SSE 23.0 mph - N/A   Clear
11:35 AM 44.6 °F 36.1 °F 33.8 °F 66% 30.06 in 10.0 mi SSE 21.9 mph - N/A   Clear
11:55 AM 44.6 °F 35.7 °F 33.8 °F 66% 30.05 in 10.0 mi SSE 24.2 mph - N/A   Clear
12:15 PM 46.4 °F 38.3 °F 35.6 °F 66% 30.04 in 10.0 mi SSE 23.0 mph 28.8 mph N/A   Clear
12:35 PM 46.4 °F 39.0 °F 35.6 °F 66% 30.02 in 10.0 mi SSE 19.6 mph 28.8 mph N/A   Clear
12:55 PM 46.4 °F 38.1 °F 35.6 °F 66% 30.01 in 10.0 mi SSE 24.2 mph 29.9 mph N/A   Clear
1:15 PM 48.2 °F - 35.6 °F 62% 30.00 in 10.0 mi SSE 21.9 mph 28.8 mph N/A   Clear
1:35 PM 48.2 °F - 35.6 °F 62% 29.99 in 10.0 mi SSE 21.9 mph 31.1 mph N/A   Clear
1:55 PM 50.0 °F - 35.6 °F 58% 29.98 in 10.0 mi SSE 19.6 mph 31.1 mph N/A   Clear
2:15 PM 50.0 °F - 37.4 °F 62% 29.97 in 10.0 mi SSE 20.7 mph 28.8 mph N/A   Clear
2:35 PM 50.0 °F - 35.6 °F 58% 29.96 in 10.0 mi SSE 21.9 mph 34.5 mph N/A   Clear
2:55 PM 50.0 °F - 35.6 °F 58% 29.94 in 10.0 mi SSE 24.2 mph 33.4 mph N/A   Clear
3:15 PM 50.0 °F - 37.4 °F 62% 29.93 in 10.0 mi SSE 25.3 mph 33.4 mph N/A   Clear
3:35 PM 50.0 °F - 35.6 °F 58% 29.93 in 10.0 mi SSE 25.3 mph 32.2 mph N/A   Clear
3:55 PM 50.0 °F - 35.6 °F 58% 29.93 in 10.0 mi SSE 25.3 mph 32.2 mph N/A   Clear
4:15 PM 48.2 °F - 35.6 °F 62% 29.93 in 10.0 mi SSE 23.0 mph 32.2 mph N/A   Clear
4:35 PM 46.4 °F 38.3 °F 35.6 °F 66% 29.92 in 10.0 mi SSE 23.0 mph 29.9 mph N/A   Clear
4:55 PM 46.4 °F 38.3 °F 35.6 °F 66% 29.92 in 10.0 mi SSE 23.0 mph 29.9 mph N/A   Clear
5:15 PM 44.6 °F 35.9 °F 35.6 °F 71% 29.91 in 10.0 mi SSE 23.0 mph 31.1 mph N/A   Clear
5:35 PM 44.6 °F 35.7 °F 35.6 °F 71% 29.92 in 10.0 mi SSE 24.2 mph - N/A   Partly Cloudy
5:55 PM 44.6 °F 35.9 °F 35.6 °F 71% 29.92 in 10.0 mi SSE 23.0 mph 29.9 mph N/A   Scattered Clouds
6:15 PM 44.6 °F 35.9 °F 35.6 °F 71% 29.92 in 10.0 mi SSE 23.0 mph 32.2 mph N/A   Mostly Cloudy
6:35 PM 44.6 °F 35.9 °F 35.6 °F 71% 29.92 in 10.0 mi SSE 23.0 mph 34.5 mph N/A   Overcast
6:55 PM 42.8 °F 33.5 °F 35.6 °F 76% 29.91 in 10.0 mi SSE 23.0 mph 29.9 mph N/A   Overcast
7:15 PM 44.6 °F 34.9 °F 35.6 °F 71% 29.91 in 10.0 mi SSE 28.8 mph 35.7 mph N/A   Overcast
7:35 PM 44.6 °F 35.1 °F 33.8 °F 66% 29.91 in 10.0 mi SSE 27.6 mph 34.5 mph N/A   Overcast
7:55 PM 44.6 °F 35.1 °F 33.8 °F 66% 29.91 in 10.0 mi SSE 27.6 mph 35.7 mph N/A   Overcast
8:15 PM 44.6 °F 35.3 °F 33.8 °F 66% 29.91 in 10.0 mi SSE 26.5 mph 33.4 mph N/A   Scattered Clouds
8:35 PM 44.6 °F 35.1 °F 33.8 °F 66% 29.91 in 10.0 mi SSE 27.6 mph 34.5 mph N/A   Clear
8:55 PM 42.8 °F 33.1 °F 33.8 °F 70% 29.90 in 10.0 mi SSE 25.3 mph 33.4 mph N/A   Clear
9:15 PM 42.8 °F 33.5 °F 33.8 °F 70% 29.90 in 10.0 mi SSE 23.0 mph 31.1 mph N/A   Mostly Cloudy
9:35 PM 44.6 °F 35.5 °F 33.8 °F 66% 29.90 in 10.0 mi SSE 25.3 mph 33.4 mph N/A   Overcast
9:55 PM 44.6 °F 35.5 °F 33.8 °F 66% 29.90 in 10.0 mi SSE 25.3 mph 34.5 mph N/A   Overcast
10:15 PM 44.6 °F 35.5 °F 32.0 °F 61% 29.90 in 10.0 mi SSE 25.3 mph 35.7 mph N/A   Overcast
10:35 PM 44.6 °F 35.7 °F 32.0 °F 61% 29.90 in 10.0 mi SSE 24.2 mph 35.7 mph N/A   Overcast
10:55 PM 44.6 °F 35.7 °F 32.0 °F 61% 29.90 in 10.0 mi South 24.2 mph 39.1 mph N/A   Overcast
11:15 PM 44.6 °F 35.9 °F 32.0 °F 61% 29.91 in 10.0 mi SSE 23.0 mph 33.4 mph N/A   Overcast
11:35 PM 44.6 °F 35.9 °F 32.0 °F 61% 29.90 in 10.0 mi SSE 23.0 mph 31.1 mph N/A   Overcast
11:55 PM 44.6 °F 35.5 °F 32.0 °F 61% 29.90 in 10.0 mi SSE 25.3 mph - N/A   Overcast